Weather History for KSEZ - September, 2013

Change the Weather History Date:

Thursday, September 5, 2013

  Actual Average (KFLG) Record (KFLG)
Temperature  
Mean Temperature 80 °F 61 °F  
Max Temperature 91 °F 76 °F 89 °F (1945)
Min Temperature 69 °F 46 °F 31 °F (1961)
Degree Days  
Heating Degree Days 0 4  
Month to date heating degree days 19  
Since 1 July heating degree days 107  
Cooling Degree Days 15 0  
Month to date cooling degree days 0  
Year to date cooling degree days 114  
Growing Degree Days 30 (Base 50)    
Moisture  
Dew Point 49 °F    
Average Humidity 37    
Maximum Humidity 53    
Minimum Humidity 21    
Precipitation  
Precipitation 0.00 in 0.10 in 2.84 in (1970)
Month to date precipitation 0.46  
Year to date precipitation 14.65  
Snow  
Snow 0.00 in 0.00 in 0.00 in (2013)
Month to date snowfall 0.0  
Since 1 July snowfall 0.0  
Snow Depth -    
Sea Level Pressure  
Sea Level Pressure 30.19 in    
Wind  
Wind Speed 9 mph (ENE)    
Max Wind Speed 15 mph    
Max Gust Speed 18 mph    
Visibility 10 miles    
Events      
T = Trace of Precipitation, MM = Missing Value Source: NWS Daily Summary

Daily Weather History Graph

Daily Weather History Graph

Search for Another Location

Airport or City:

Trip Planner

Search our weather history database for the weather conditions in past years. The results will help you decide how hot, cold, wet, or windy it might be!

Date:

Astronomy

Sep. 05, 2013 Rise Set
Actual Time 6:03 AM MST 6:47 PM MST
Civil Twilight 5:37 AM MST 7:13 PM MST
Nautical Twilight 5:07 AM MST 7:43 PM MST
Astronomical Twilight 4:36 AM MST 8:14 PM MST
Moon 6:15 AM MST (9/5) 6:45 PM MST (9/5)
Length of Visible Light 13h 35m
Length of Day
12h 44m
New Moon, 0% of the Moon is Illuminated
Sep 5
New Moon
Sep 12
First Quarter
Sep 19
Full
Sep 26
Last Quarter
Oct 4
New

Hourly Weather History & Observations

Time (MST) Temp. Heat Index Dew Point Humidity Pressure Visibility Wind Dir Wind Speed Gust Speed Precip Events Conditions
12:15 AM 71.6 °F - 53.6 °F 53% 30.20 in 10.0 mi NE 11.5 mph - N/A   Clear
12:35 AM 71.6 °F - 53.6 °F 53% 30.20 in 10.0 mi NE 11.5 mph - N/A   Clear
12:55 AM 71.6 °F - 53.6 °F 53% 30.19 in 10.0 mi NE 12.7 mph - N/A   Clear
1:15 AM 71.6 °F - 53.6 °F 53% 30.19 in 10.0 mi NE 11.5 mph 18.4 mph N/A   Clear
1:35 AM 71.6 °F - 53.6 °F 53% 30.19 in 10.0 mi ENE 5.8 mph - N/A   Clear
1:55 AM 71.6 °F - 51.8 °F 50% 30.19 in 10.0 mi ENE 6.9 mph - N/A   Clear
2:15 AM 71.6 °F - 51.8 °F 50% 30.19 in 10.0 mi NE 9.2 mph - N/A   Clear
2:35 AM 71.6 °F - 51.8 °F 50% 30.19 in 10.0 mi NE 9.2 mph - N/A   Clear
2:55 AM 71.6 °F - 51.8 °F 50% 30.19 in 10.0 mi NE 10.4 mph - N/A   Clear
3:15 AM 69.8 °F - 51.8 °F 53% 30.18 in 10.0 mi NE 11.5 mph - N/A   Clear
3:35 AM 71.6 °F - 51.8 °F 50% 30.18 in 10.0 mi ENE 12.7 mph - N/A   Clear
3:55 AM 69.8 °F - 51.8 °F 53% 30.18 in 10.0 mi NE 15.0 mph - N/A   Clear
4:15 AM 71.6 °F - 51.8 °F 50% 30.18 in 10.0 mi NE 15.0 mph 18.4 mph N/A   Clear
4:35 AM 71.6 °F - 51.8 °F 50% 30.18 in 10.0 mi ENE 13.8 mph - N/A   Clear
4:55 AM 69.8 °F - 51.8 °F 53% 30.18 in 10.0 mi NE 11.5 mph - N/A   Clear
5:15 AM 69.8 °F - 51.8 °F 53% 30.18 in 10.0 mi NE 11.5 mph - N/A   Clear
5:35 AM 71.6 °F - 51.8 °F 50% 30.19 in 10.0 mi NE 15.0 mph - N/A   Clear
5:55 AM 69.8 °F - 51.8 °F 53% 30.19 in 10.0 mi NE 13.8 mph - N/A   Clear
6:15 AM 69.8 °F - 51.8 °F 53% 30.20 in 10.0 mi NE 11.5 mph - N/A   Clear
6:35 AM 69.8 °F - 51.8 °F 53% 30.21 in 10.0 mi NE 15.0 mph - N/A   Clear
6:55 AM 71.6 °F - 51.8 °F 50% 30.21 in 10.0 mi ENE 9.2 mph 17.3 mph N/A   Scattered Clouds
7:15 AM 71.6 °F - 51.8 °F 50% 30.21 in 10.0 mi ENE 10.4 mph - N/A   Mostly Cloudy
7:35 AM 73.4 °F - 51.8 °F 47% 30.22 in 10.0 mi ENE 10.4 mph - N/A   Mostly Cloudy
7:55 AM 73.4 °F - 51.8 °F 47% 30.22 in 10.0 mi NE 8.1 mph - N/A   Scattered Clouds
8:15 AM 77.0 °F - 51.8 °F 41% 30.23 in 10.0 mi NE 6.9 mph - N/A   Scattered Clouds
8:35 AM 77.0 °F - 51.8 °F 41% 30.23 in 10.0 mi ENE 4.6 mph - N/A   Mostly Cloudy
8:55 AM 78.8 °F - 51.8 °F 39% 30.24 in 10.0 mi East 5.8 mph - N/A   Mostly Cloudy
9:15 AM 80.6 °F - 51.8 °F 37% 30.24 in 10.0 mi East 4.6 mph - N/A   Scattered Clouds
9:35 AM 80.6 °F - 51.8 °F 37% 30.25 in 10.0 mi Calm Calm - N/A   Clear
9:55 AM 84.2 °F 82.8 °F 53.6 °F 35% 30.24 in 10.0 mi SE 4.6 mph - N/A   Clear
10:15 AM 84.2 °F - 50.0 °F 30% 30.24 in 10.0 mi South 4.6 mph - N/A   Clear
10:35 AM 86.0 °F - 46.4 °F 25% 30.24 in 10.0 mi SSE 4.6 mph - N/A   Scattered Clouds
10:55 AM 86.0 °F - 46.4 °F 25% 30.24 in 10.0 mi South 5.8 mph - N/A   Clear
11:15 AM 87.8 °F - 50.0 °F 27% 30.24 in 10.0 mi South 3.5 mph - N/A   Clear
11:35 AM 86.0 °F - 50.0 °F 29% 30.23 in 10.0 mi SW 6.9 mph - N/A   Scattered Clouds
11:55 AM 87.8 °F - 46.4 °F 24% 30.23 in 10.0 mi South 3.5 mph - N/A   Clear
12:15 PM 87.8 °F - 46.4 °F 24% 30.22 in 10.0 mi West 4.6 mph - N/A   Clear
12:35 PM 91.4 °F - 46.4 °F 21% 30.22 in 10.0 mi West 6.9 mph - N/A   Clear
12:55 PM 89.6 °F - 46.4 °F 22% 30.21 in 10.0 mi South 3.5 mph - N/A   Clear
1:15 PM 87.8 °F - 44.6 °F 22% 30.21 in 10.0 mi WSW 3.5 mph - N/A   Scattered Clouds
1:35 PM 87.8 °F - 46.4 °F 24% 30.20 in 10.0 mi South 4.6 mph - N/A   Scattered Clouds
1:55 PM 86.0 °F - 46.4 °F 25% 30.19 in 10.0 mi Calm Calm - N/A   Mostly Cloudy
2:15 PM 87.8 °F - 46.4 °F 24% 30.18 in 10.0 mi Calm Calm - N/A   Mostly Cloudy
2:35 PM 87.8 °F - 46.4 °F 24% 30.17 in 10.0 mi WSW 3.5 mph - N/A   Scattered Clouds
2:55 PM 89.6 °F - 46.4 °F 22% 30.17 in 10.0 mi SSW 6.9 mph - N/A   Clear
3:15 PM 91.4 °F - 46.4 °F 21% 30.16 in 10.0 mi ENE 4.6 mph - N/A   Clear
3:35 PM 89.6 °F - 44.6 °F 21% 30.16 in 10.0 mi Calm Calm - N/A   Mostly Cloudy
3:55 PM 89.6 °F - 46.4 °F 22% 30.16 in 10.0 mi SE 3.5 mph - N/A   Mostly Cloudy
4:15 PM 87.8 °F - 44.6 °F 22% 30.15 in 10.0 mi SSE 12.7 mph - N/A   Mostly Cloudy
4:35 PM 87.8 °F - 42.8 °F 21% 30.15 in 10.0 mi SSE 11.5 mph - N/A   Mostly Cloudy
4:55 PM 86.0 °F - 44.6 °F 23% 30.15 in 10.0 mi ESE 6.9 mph - N/A   Scattered Clouds
5:15 PM 86.0 °F - 44.6 °F 23% 30.14 in 10.0 mi East 4.6 mph - N/A   Clear
5:35 PM 86.0 °F - 46.4 °F 25% 30.14 in 10.0 mi East 6.9 mph - N/A   Scattered Clouds
5:55 PM 86.0 °F - 46.4 °F 25% 30.14 in 10.0 mi ENE 3.5 mph - N/A   Overcast
6:15 PM 86.0 °F - 46.4 °F 25% 30.13 in 10.0 mi NE 3.5 mph - N/A   Mostly Cloudy
6:35 PM 82.4 °F - 46.4 °F 28% 30.13 in 10.0 mi ENE 6.9 mph - N/A   Scattered Clouds
6:55 PM 82.4 °F - 48.2 °F 30% 30.14 in 10.0 mi NE 6.9 mph - N/A   Clear
7:15 PM 80.6 °F - 50.0 °F 34% 30.14 in 10.0 mi NE 9.2 mph - N/A   Clear
7:35 PM 80.6 °F - 51.8 °F 37% 30.14 in 10.0 mi NE 10.4 mph - N/A   Clear
7:55 PM 80.6 °F - 50.0 °F 34% 30.15 in 10.0 mi NE 10.4 mph - N/A   Clear
8:15 PM 78.8 °F - 50.0 °F 36% 30.16 in 10.0 mi NE 9.2 mph - N/A   Clear
8:35 PM 78.8 °F - 50.0 °F 36% 30.17 in 10.0 mi NE 9.2 mph - N/A   Clear
8:55 PM 78.8 °F - 50.0 °F 36% 30.17 in 10.0 mi NE 11.5 mph - N/A   Clear
9:15 PM 78.8 °F - 50.0 °F 36% 30.17 in 10.0 mi NE 11.5 mph - N/A   Clear
9:35 PM 78.8 °F - 48.2 °F 34% 30.17 in 10.0 mi NE 9.2 mph - N/A   Clear
9:55 PM 78.8 °F - 48.2 °F 34% 30.17 in 10.0 mi NE 10.4 mph - N/A   Clear
10:15 PM 77.0 °F - 48.2 °F 36% 30.17 in 10.0 mi NE 11.5 mph - N/A   Clear
10:35 PM 77.0 °F - 46.4 °F 34% 30.18 in 10.0 mi NE 9.2 mph - N/A   Clear
10:55 PM 77.0 °F - 46.4 °F 34% 30.18 in 10.0 mi NE 6.9 mph - N/A   Clear
11:15 PM 77.0 °F - 46.4 °F 34% 30.18 in 10.0 mi NE 10.4 mph - N/A   Clear
11:35 PM 77.0 °F - 46.4 °F 34% 30.18 in 10.0 mi NE 9.2 mph - N/A   Clear
11:55 PM 77.0 °F - 46.4 °F 34% 30.18 in 10.0 mi NE 6.9 mph - N/A   Clear